Location: Hermitage Woods
(36.1778°N, 86.6000°W)
Time: 03:31:19
(UTC+00:00)

Daily predictions for brighter satellites

Satellite Brightness Start Highest point End
(mag) Time Altitude Azimuth Time Altitude Azimuth Time Altitude Azimuth
SL-24 R/B 4.1 00:05:26 10° SSE 00:09:44 85° ENE 00:14:18 10° N
BREEZE-M DEB (TANK) 3.1 00:08:09 10° SSW 00:10:33 41° SE 00:15:34 10° NE
Cosmos 1782 Rocket 3.6 00:07:24 10° S 00:11:45 65° E 00:16:09 10° NNE
Cosmos 1844 Rocket 3.7 00:08:27 10° SSE 00:12:42 23° E 00:16:59 10° NE
Cosmos 1908 Rocket 4.2 00:09:22 10° SSW 00:13:38 60° W 00:17:59 10° N
Meteor 2-9 Rocket 4.3 00:08:52 10° S 00:14:43 79° E 00:20:32 10° NNE
Tsikada Rocket 4.2 00:09:32 10° N 00:15:41 82° W 00:21:52 10° S
ISS -2.4 00:14:09 10° WSW 00:17:20 39° NW 00:20:32 10° NE
CZ-2D R/B 3.2 00:14:24 10° SSE 00:18:16 83° ENE 00:22:10 10° N
Cosmos 807 4.2 00:18:29 10° S 00:21:29 73° E 00:24:58 10° N
Cosmos 2084 Rocket 3.6 00:17:34 10° NNW 00:22:01 62° ENE 00:26:31 10° SE
Cosmos 1937 Rocket 3.9 00:17:09 10° SSW 00:22:24 71° WNW 00:27:38 10° NNE
USA 234 4.2 00:21:12 10° ENE 00:26:30 26° ESE 00:31:45 10° S
Cosmos 1939 Rocket 3.9 00:25:21 10° S 00:29:20 51° W 00:33:24 10° NNW
Cosmos 2112 Rocket 4.2 00:24:16 10° NNW 00:29:28 75° WSW 00:34:41 10° S
CZ-2C R/B 0.9 00:26:17 10° W 00:29:59 74° S 00:32:43 16° E
Cosmos 1943 3.2 00:25:06 10° NNW 00:30:46 73° ENE 00:36:25 10° SSE
Cosmos 1680 Rocket 4.2 00:27:25 10° NNW 00:32:33 58° WSW 00:37:41 10° S
CSL-04 Debris 4.2 00:30:37 10° SSE 00:35:55 62° ENE 00:41:14 10° N
Iridium 4 Rocket 4.1 00:32:29 10° SSW 00:37:16 62° W 00:42:32 10° N
Cosmos 1975 Rocket 2.9 00:36:08 10° N 00:40:28 78° E 00:44:46 10° S
CSL-04 Rocket 3.6 00:37:21 10° SSE 00:42:41 68° ENE 00:48:08 10° N
Cosmos 1174 4.3 00:42:13 10° SSW 00:46:45 77° ESE 00:52:34 10° NNE
Shenzhou-11 Module 3.9 00:46:55 10° S 00:46:55 10° S 00:46:55 10° S
Cosmos 1603 4.2 00:47:03 10° NNW 00:52:37 61° WSW 00:58:07 10° S
HJ-1C 3.2 00:53:39 10° SSE 00:56:56 88° ENE 01:00:13 10° N
H-2A R/B 1.8 00:52:41 10° SSE 00:57:36 78° ENE 01:02:38 10° N
Cosmos 1072 Rocket 4.5 00:53:12 10° S 00:59:24 87° E 01:05:45 10° N
Sich 1 Rocket 4.2 00:55:52 10° SSW 01:00:16 59° W 01:04:45 10° N
ATLAS 2AS CENTAUR R/B 3.6 00:53:42 10° S 01:00:27 33° ESE 01:07:18 10° NE
BREEZE-M TANK 4.2 00:47:21 10° WSW 01:01:42 61° NNW 01:05:14 14° NE
Meteor 1-12 Rocket 4.3 00:57:12 10° S 01:03:08 89° E 01:09:00 10° N
Nadezhda 4 Rocket 4.2 00:57:52 10° N 01:03:40 44° E 01:07:55 18° SE
Cosmos 2034 Rocket 4.0 00:59:51 10° S 01:06:07 63° E 01:12:23 10° NNE
CENTAUR R/B 4.0 01:03:23 10° NNW 01:10:35 32° NE 01:14:15 24° E
GOES 2 Rocket 4.1 01:08:09 10° SW 01:11:42 27° S 01:12:20 26° SSE
CZ-4 R/B 3.7 01:08:36 10° SSW 01:12:09 26° W 01:15:43 10° NW
Okean 1 Rocket 4.0 01:16:18 31° ENE 01:16:18 31° ENE 01:19:17 10° NNE
Okean 2 Rocket 3.6 01:12:14 10° SSW 01:16:41 63° W 01:21:08 10° N
Ariane Rocket 3.1 01:16:43 34° SE 01:18:38 52° ENE 01:23:33 10° N
Cosmos 1300 Rocket 4.1 01:15:03 10° SSW 01:19:21 59° W 01:23:44 10° N
Cosmos 1707 3.1 01:15:55 10° NNW 01:19:43 63° W 01:23:09 12° S
USA 238 DEB 4.1 01:19:36 10° NNW 01:26:40 50° NE 01:29:18 36° ESE
USA 238 4.1 01:19:43 10° NNW 01:26:46 50° NE 01:29:22 36° ESE
ARGOS 3.3 01:21:35 10° S 01:26:55 75° WSW 01:32:18 10° NNW
DELTA 2 R/B (1) 4.1 01:21:45 10° WNW 01:27:07 51° SSW 01:29:07 34° SSE
Meteor 2-5 Rocket 4.5 01:23:12 10° NNE 01:27:52 33° ENE 01:27:52 33° ENE
In-Cosmos 22 4.1 01:24:40 10° N 01:29:59 83° W 01:34:17 16° S
SJ-6B 3.4 01:33:14 40° NNE 01:33:14 40° NNE 01:35:51 10° N
SL-08 RB Rocket 3.6 01:30:56 34° S 01:32:58 86° WSW 01:37:33 10° NNW
CZ-2C R/B 2.7 01:30:27 10° NNE 01:36:02 88° WNW 01:41:40 10° SSW
Cosmos 1634 Rocket 4.1 01:37:17 47° E 01:37:34 48° E 01:43:27 10° NNE
USA 186 3.4 01:43:20 32° NW 01:43:20 32° NW 01:45:18 10° NNW
SPOT 3 Rocket 4.4 01:44:55 35° NE 01:44:55 35° NE 01:48:30 10° N
Cosmos 1536 Rocket 3.7 01:40:12 10° NNW 01:44:39 71° W 01:45:33 53° SSW
Cosmos 2285 Rocket 4.0 01:41:26 10° SSW 01:47:43 83° WNW 01:54:05 10° NNE
Cosmos 1025 Rocket 4.1 01:45:18 10° NNW 01:49:28 43° W 01:51:49 23° SSW
Cosmos 1844 4.2 01:45:58 10° SW 01:51:35 58° WNW 01:57:11 10° NNE
NOSS 3-2 (A) 4.0 01:45:55 10° NNW 01:53:46 79° ENE 01:56:29 48° SE
Meteor 2-13 Rocket 4.3 01:48:37 10° N 01:54:48 74° E 01:55:29 67° SE
Cosmos 1844 Rocket 3.9 01:51:02 10° SW 01:56:15 41° WNW 02:01:32 10° N
Cosmos 1092 Rocket 3.8 01:58:24 10° N 02:04:35 85° E 02:05:05 77° SSE
Cosmos 2195 Rocket 4.3 01:59:16 10° N 02:05:23 76° ENE 02:05:23 76° ENE
MetOp-A 4.3 02:07:39 62° SW 02:08:12 66° WSW 02:13:33 10° NNW
Cosmos 2026 Rocket 4.0 02:02:53 10° N 02:08:36 65° NE 02:08:36 65° NE
CZ-2C R/B 3.6 02:06:06 10° W 02:07:04 17° W 02:07:04 17° W
USA 234 3.3 02:04:41 18° NE 02:09:47 74° NW 02:16:19 10° SW
Milstar 3 Cent rocket 3.6 02:10:45 10° WSW 02:14:14 27° SW 02:14:14 27° SW
BREEZE-M DEB (TANK) 4.3 02:05:26 10° WNW 02:22:10 78° SW 02:22:38 74° S
NOSS 3-4 (A) 3.8 02:22:42 10° SW 02:28:27 58° NW 02:34:32 10° NNE
NOSS 3-4 (C) 3.8 02:22:48 10° SW 02:28:34 59° NW 02:34:38 10° NNE
NOSS 3-2 (C) 3.9 02:21:36 10° NNW 02:29:28 84° ENE 02:29:49 82° ESE
Resurs 01 Rocket 4.1 02:36:49 17° NNW 02:36:49 17° NNW 02:37:54 10° NNW
ATLAS 2AS CENTAUR R/B 3.6 02:43:25 10° SW 02:51:07 55° NW 02:58:54 10° NNE
BREEZE-M DEB (TANK) 4.4 02:49:40 10° WNW 02:54:11 64° SW 02:54:11 64° SW
CENTAUR R/B 3.4 02:53:36 10° NW 03:01:27 67° W 03:01:27 67° W
ATLAS 3B R/B 4.0 03:03:29 10° NNW 03:07:18 33° N 03:07:18 33° N
USA 267 4.0 08:17:49 10° NE 08:22:28 47° NNE 08:22:28 47° NNE
Cosmos 1697 Rocket 4.5 08:48:35 22° N 08:48:35 22° N 08:50:45 10° N
MSX 4.5 08:41:23 10° NNE 08:47:00 49° E 08:47:06 49° ESE
Cosmos 1980 Rocket 3.2 08:52:46 38° N 08:52:46 38° N 08:56:16 10° NNE
USA 234 4.5 08:50:18 10° E 08:56:10 37° NE 09:02:03 10° NNW
BREEZE-M DEB (TANK) 3.9 08:55:56 67° SSW 08:57:01 78° SSE 09:01:28 10° ENE
Cosmos 2322 Rocket 3.8 08:55:33 22° SE 08:57:47 29° ESE 09:02:37 10° NE
Cosmos 2263 Rocket 3.8 08:56:59 10° N 09:02:04 33° ENE 09:07:08 10° SE
SL-16 R/B 3.1 09:05:31 37° SE 09:06:56 45° ESE 09:12:18 10° NE
SL-4 R/B 3.4 09:08:18 42° E 09:08:18 42° E 09:11:44 10° ENE
Cosmos 2228 Rocket 4.5 09:09:42 33° NNE 09:09:42 33° NNE 09:12:11 10° N
ADEOS II 4.3 09:08:14 10° NNW 09:09:07 14° NNW 09:09:07 14° NNW
Cosmos 1934 Rocket 3.7 09:06:31 10° N 09:12:35 85° W 09:12:49 83° SW
ARIANE 5 R/B 4.0 09:10:16 10° N 09:12:41 26° NNW 09:12:41 26° NNW
COSMOS 2441 4.4 09:13:57 10° NNE 09:18:29 75° NNE 09:18:29 75° NNE
CZ-2C R/B 3.5 09:16:25 10° NNE 09:21:21 45° E 09:24:58 18° SSE
IDEFIX/ARIANE 42P 3.3 09:16:20 10° N 09:20:03 41° NNW 09:20:03 41° NNW
Cosmos 1763 Rocket 4.0 09:21:34 40° SSE 09:23:14 57° ESE 09:28:27 10° NNE
SJ 16-02 2.1 09:26:03 10° N 09:30:20 50° ENE 09:34:36 10° SSE
Meteor 1-14 Rocket 4.2 09:27:23 10° NNW 09:32:16 57° WNW 09:32:16 57° WNW
Meteor 2-6 Rocket 4.1 09:32:38 59° SW 09:33:39 75° W 09:39:27 10° N
PSLV R/B 3.9 09:29:37 10° NNE 09:33:46 60° E 09:34:43 46° SSE
H-2A R/B 2.3 09:30:11 10° SSE 09:34:28 67° ENE 09:38:54 10° N
DEBRIS 4.2 09:34:58 24° NNE 09:35:35 27° NE 09:39:44 10° E
Meteor 1-5 Rocket 4.2 09:30:28 10° N 09:35:48 74° E 09:41:15 10° SSE
Cosmos 1238 Rocket 3.9 09:31:37 10° NNW 09:37:57 57° W 09:39:04 50° SW
Cosmos 1605 Rocket 3.9 09:33:29 10° N 09:39:55 82° W 09:46:18 10° S
Landsat 5 3.5 09:40:30 10° SSE 09:45:00 88° WSW 09:49:32 10° NNW
Lacrosse 5 4.1 09:45:25 12° NNW 09:46:08 12° NNW 09:48:11 10° N
ERS-2 3.1 09:44:02 10° SSE 09:47:33 47° ENE 09:51:05 10° N
PAYLOAD A 3.6 09:43:51 10° N 09:48:33 83° WNW 09:50:29 36° SSW
Cosmos 540 Rocket 4.3 09:45:03 10° S 09:50:00 49° ESE 09:54:58 10° NNE
Cosmos 990 Rocket 4.5 09:45:58 10° N 09:51:07 60° ENE 09:56:16 10° SSE
Cosmos 468 Rocket 3.9 09:50:04 44° SW 09:51:39 66° WNW 09:56:55 10° NNE
X-37B 2.7 09:51:10 19° N 09:51:47 20° NNE 09:54:15 10° ENE
ALOS 3.6 09:56:45 10° NNE 10:01:08 40° E 10:05:31 10° SSE
Cosmos 1484 Rocket 4.3 09:57:30 10° NNE 10:01:15 38° E 10:05:00 10° SSE
Cosmos 1536 3.3 10:04:01 10° N 10:08:03 62° E 10:12:04 10° SSE
Cosmos 1727 Rocket 4.0 10:03:49 10° SSW 10:10:03 59° W 10:16:18 10° N
Meteor 1-31 Rocket 4.0 10:09:10 10° NNE 10:12:48 41° E 10:16:28 10° S
DASH 4.5 10:14:08 20° SW 10:14:10 20° SW 10:16:58 10° S
Meteor 1-11 Rocket 3.6 10:09:49 10° NNW 10:15:34 77° W 10:21:10 10° S
Cosmos 2100 Rocket 4.2 10:10:12 10° N 10:16:36 77° E 10:22:56 10° S
Cosmos 1812 4.5 10:21:49 17° NW 10:21:49 17° NW 10:23:28 10° NNW
deb Chang Zheng 4 3.4 10:17:23 10° NNE 10:21:41 85° W 10:25:56 10° SSW
Meteor 1-27 Rocket 3.9 10:15:57 10° SSW 10:21:48 59° W 10:27:38 10° N
SL-8 R/B 3.8 10:17:55 13° NW 10:22:08 76° NNE 10:26:54 10° ESE
Cosmos 2360 Rocket 2.2 10:18:49 10° SSW 10:24:29 89° ESE 10:30:11 10° NNE
ADEOS Rocket 3.1 10:19:54 10° S 10:26:55 76° WSW 10:33:14 10° NNW
Cosmos 1898 Rocket 3.4 10:21:46 10° NNW 10:27:00 68° WSW 10:32:15 10° S
ATLAS 2AS CENTAUR R/B 3.9 10:20:31 10° NNW 10:27:34 45° NE 10:34:01 10° ESE
Cosmos 1707 Rocket 4.1 10:26:34 18° SW 10:29:17 35° WNW 10:33:17 10° NNW
Cosmos 1666 3.0 10:26:45 10° NNW 10:30:21 41° W 10:33:54 10° SSW
Cosmos 1459 Rocket 3.9 10:25:34 10° N 10:31:39 88° W 10:37:41 10° S
Cosmos 2123 Rocket 4.3 10:27:21 10° S 10:33:30 70° E 10:39:46 10° NNE
SAR-Lupe-4 3.6 10:31:49 10° SSE 10:35:24 85° ENE 10:39:00 10° NNW
Cosmos 858 Rocket 4.4 10:32:17 10° NNW 10:37:29 78° WSW 10:42:39 10° S
Cosmos 2208 Rocket 3.9 10:32:33 10° SSW 10:37:48 71° WNW 10:43:00 10° NNE
FENGYUN 3A 3.6 10:32:40 10° N 10:38:04 81° WNW 10:43:28 10° SSW
USA 234 3.3 10:32:27 10° SSE 10:38:54 63° SW 10:45:22 10° NW
Cosmos 2322 Rocket 2.9 10:37:25 14° WSW 10:41:40 34° WNW 10:46:49 10° N
Cosmos 2263 Rocket 2.9 10:40:59 10° NW 10:45:52 30° WSW 10:50:45 10° SSW
SL-4 R/B 3.5 10:43:55 14° W 10:47:07 29° NNW 10:51:16 10° NNE
SAR-Lupe-1 4.0 10:44:01 10° S 10:47:33 67° WSW 10:51:07 10° NNW
SL-16 R/B 3.4 10:47:26 13° WSW 10:51:13 23° WNW 10:55:42 10° N
Cosmos 1733 Rocket 3.1 10:47:11 10° NNW 10:51:24 52° W 10:55:35 10° S
Cosmos 1844 Rocket 3.5 10:46:29 10° NNW 10:52:02 56° ENE 10:57:34 10° SE
Cosmos 1937 Rocket 3.5 10:47:23 10° NNW 10:52:23 54° WSW 10:57:22 10° S
Cosmos 1814 Rocket 4.2 10:50:20 10° SW 10:55:20 49° WNW 11:00:26 10° N
Cosmos 44 Rocket 3.9 10:51:57 10° WSW 10:56:18 37° NW 11:00:47 10° NNE
ADEOS 4.0 10:51:29 10° N 10:56:20 40° WNW 11:01:09 10° SW
Cosmos 841 Rocket 4.1 10:51:47 10° SW 10:56:34 37° WNW 11:01:26 10° N
CZ-2C R/B 3.9 10:55:32 10° NNW 10:59:12 20° WNW 11:02:53 10° WSW
Cosmos 1862 Rocket 4.3 10:59:35 10° SW 11:03:31 31° WNW 11:07:25 10° NNW
Gbstr 26 Del rocket 4.3 10:56:20 10° NW 11:04:11 76° SW 11:10:51 10° SE
Cosmos 2173 Rocket 4.3 10:58:39 10° NNW 11:04:39 46° W 11:10:40 10° SSW
Cosmos 1975 4.1 11:01:02 10° N 11:04:54 46° E 11:08:44 10° SSE
SJ-12 3.9 11:01:00 10° N 11:05:06 69° WNW 11:09:12 10° SSW
CZ-4B R/B 2.4 11:03:45 10° SSW 11:06:14 22° W 11:08:48 10° NW
SJ 16-02 3.1 11:06:57 10° WNW 11:08:22 11° W 11:09:47 10° WSW
Cosmos 1743 2.8 11:06:06 10° NNW 11:09:49 55° W 11:13:32 10° S
